This is the latest recevied weather packets stored in our database for station/object N7IGG. If no packets are shown the sender has not sent any weather packets the latest 10 day(s).
| Time | Temp. | Humidity | Pressure | Rain* | Wind** | Luminosity | Snow |
|---|---|---|---|---|---|---|---|
| 1777494712 | 16.67° C | 67% | 1023.9 hPa | 0 mm | - | 675 W/m² | - |
| 1777494409 | 16.67° C | 67% | 1023.9 hPa | 0 mm | - | 656 W/m² | - |
| 1777494105 | 16.67° C | 67% | 1024.1 hPa | 0 mm | - | 679 W/m² | - |
| 1777493803 | 16.67° C | 66% | 1024.3 hPa | 0 mm | - | 663 W/m² | - |
| 1777493501 | 16.67° C | 66% | 1024.1 hPa | 0 mm | - | 721 W/m² | - |
| 1777493197 | 16.67° C | 66% | 1024.2 hPa | 0 mm | - | 658 W/m² | - |
| 1777492894 | 16.11° C | 65% | 1024.4 hPa | 0 mm | - | 652 W/m² | - |
| 1777492591 | 16.11° C | 66% | 1024.4 hPa | 0 mm | - | 689 W/m² | - |
| 1777492286 | 16.11° C | 67% | 1024.3 hPa | 0 mm | - | 675 W/m² | - |
| 1777491984 | 16.11° C | 69% | 1024.4 hPa | 0 mm | - | 694 W/m² | - |
| 1777491680 | 15.56° C | 69% | 1024.5 hPa | 0 mm | - | 575 W/m² | - |
| 1777491378 | 15° C | 70% | 1024.6 hPa | 0 mm | - | 619 W/m² | - |
| 1777491074 | 15.56° C | 69% | 1024.5 hPa | 0 mm | - | 642 W/m² | - |
| 1777490769 | 15.56° C | 72% | 1024.4 hPa | 0 mm | - | 664 W/m² | - |
| 1777490467 | 15.56° C | 73% | 1024.5 hPa | 0 mm | - | 668 W/m² | - |
| 1777490162 | 15° C | 74% | 1024.6 hPa | 0 mm | - | 675 W/m² | - |
| 1777489860 | 15° C | 74% | 1024 hPa | 0 mm | - | 595 W/m² | - |
| 1777489557 | 15° C | 73% | 1024 hPa | 0 mm | - | 601 W/m² | - |
| 1777489254 | 15° C | 74% | 1024 hPa | 0 mm | - | 570 W/m² | - |
| 1777488951 | 15° C | 74% | 1024 hPa | 0 mm | - | 612 W/m² | - |
| 1777488648 | 14.44° C | 74% | 1024.1 hPa | 0 mm | - | 640 W/m² | - |
| 1777488346 | 14.44° C | 74% | 1024.4 hPa | 0 mm | - | 544 W/m² | - |
| 1777488044 | 14.44° C | 74% | 1024.2 hPa | 0 mm | - | 548 W/m² | - |
| 1777487741 | 14.44° C | 75% | 1024.3 hPa | 0 mm | - | 608 W/m² | - |
| 1777487439 | 13.89° C | 77% | 1024.4 hPa | 0 mm | - | 593 W/m² | - |
* Rain latest hour (hover to see other rain measurements)
** Current wind speed in m/s (hover to see current wind gust speed)